Wind_Speed
8 9 9 10 10 10 11 11 11 12 12 13 13 14 14 14 15 15 15 15 16 16 16 17 17 16 17 16 17 17 17 17 17 17 17 17 18 18 18 18 18 19 19
7 7 8 8 9 9 10 10 11 11 12 12 13 13 13 13 14 15 15 15 16 16 16 16 17 17 17 17 17 17 17 18 18 18 18 18 18 19 19 19 20 20 20
5 6 7 7 7 8 8 9 10 10 11 11 12 12 13 13 14 15 15 16 16 16 17 17 17 17 18 18 18 18 18 18 18 18 19 19 19 20 20 20 21 21 21
5 5 6 6 7 7 8 9 9 10 11 11 12 12 13 14 14 15 15 16 16 17 17 18 18 18 18 19 19 20 20 20 20 20 19 20 20 20 21 21 21 22 22
5 6 6 7 7 8 8 9 10 11 11 12 12 13 13 14 15 15 15 16 16 17 17 18 18 18 19 20 20 21 21 21 21 21 21 21 22 22 22 22 22 23 23
7 7 8 8 8 9 10 10 11 11 12 12 13 14 14 15 15 16 16 16 17 18 18 19 19 20 20 21 21 22 22 22 22 22 23 23 23 23 23 24 24 24 24
7 8 9 9 10 10 11 11 12 12 13 13 14 15 15 16 16 17 18 18 19 19 20 20 21 21 22 22 23 23 23 24 24 24 25 25 25 25 25 26 26 26 26
8 9 10 10 11 12 12 13 13 13 14 15 15 16 17 18 18 19 19 20 20 21 21 22 22 23 23 24 25 25 25 25 26 26 26 27 27 27 28 28 28 28 28
10 11 12 12 13 13 14 14 14 15 15 16 17 18 18 19 19 20 21 21 22 22 23 23 24 24 25 26 26 26 27 27 27 28 28 28 28 29 29 30 30 30 31
13 13 14 15 15 15 16 16 16 17 17 18 19 19 19 20 20 21 22 22 23 23 24 25 25 26 27 27 27 28 28 28 29 29 29 30 30 30 30 31 31 31 32
15 15 16 16 16 17 17 18 18 18 19 19 20 20 20 21 22 22 23 23 24 24 25 25 26 26 27 28 28 28 29 29 30 30 30 31 31 31 31 32 32 32 32
16 17 17 18 18 18 19 20 20 20 20 20 21 21 22 22 23 23 24 24 25 25 26 27 27 27 28 28 29 29 30 30 30 31 31 32 32 32 32 33 33 33 34
18 19 19 19 20 20 21 21 21 22 22 22 22 23 23 23 23 24 25 25 26 27 27 28 28 28 29 29 30 30 31 31 32 31 32 32 33 33 33 33 34 34 34
21 21 22 22 22 22 23 23 23 23 24 24 24 24 24 25 25 25 26 27 27 28 28 29 29 29 30 31 31 32 32 32 32 32 32 32 33 33 33 34 34 34 35
23 24 25 25 25 25 25 25 25 25 26 26 26 26 26 26 27 27 27 28 29 30 30 30 30 31 31 32 33 33 32 32 32 32 32 32 33 33 34 34 35 35 36
26 27 27 28 28 28 28 28 28 28 28 28 28 28 28 29 29 29 29 30 30 31 31 31 31 32 32 33 33 33 32 32 33 33 33 33 33 34 34 35 35 36 36
29 29 30 30 30 30 30 29 29 30 30 30 30 30 30 30 30 30 31 31 32 32 32 33 33 33 33 33 33 33 33 33 34 34 34 34 34 34 35 35 36 36 37
31 32 32 32 32 32 32 31 31 31 31 31 32 32 32 32 32 32 32 32 32 33 33 33 33 34 34 34 33 33 34 34 34 34 34 34 34 35 35 36 36 36 37
34 34 34 34 34 33 33 33 33 32 32 32 33 33 33 33 32 33 33 33 33 33 33 34 34 34 34 34 34 34 34 35 35 35 35 35 35 35 35 36 36 37 38
35 35 35 35 35 34 34 35 34 34 34 34 34 34 34 33 33 33 34 34 34 34 34 34 35 34 34 34 34 34 35 35 35 36 36 36 36 37 37 37 37 38 39
36 36 36 36 36 36 35 36 36 36 35 35 34 34 33 33 34 34 34 33 33 34 35 35 35 35 35 35 35 35 35 36 36 36 37 38 38 38 39 39 39 40 40
36 36 36 36 36 36 36 36 36 36 35 34 34 33 34 34 34 34 33 34 34 34 34 35 35 36 36 36 35 35 35 36 37 37 38 39 39 39 40 40 41 42 42
36 37 36 36 36 37 36 36 36 35 35 34 34 34 34 34 33 33 33 34 35 35 35 36 36 36 36 36 36 37 36 36 36 37 39 40 41 41 41 42 42 42 43
37 37 37 36 36 36 36 36 35 35 35 35 35 34 34 33 34 34 35 35 35 36 36 36 37 37 37 37 37 38 38 38 37 37 38 40 40 41 42 42 43 44 44
36 36 36 36 36 36 36 35 35 34 34 34 34 33 34 34 34 35 35 35 36 36 36 37 37 37 37 38 38 39 39 40 40 40 39 39 40 41 42 43 44 45 46
35 35 35 35 35 35 35 35 34 34 34 33 33 33 34 34 34 35 35 35 35 36 37 37 37 38 38 39 40 40 41 41 41 41 40 40 40 41 42 43 45 46 46
Wind_Direction
247 252 257 261 264 268 271 274 276 278 280 281 283 285 287 288 290 291 293 295 295 295 296 295 295 294 292 291 290 289 287 286 286 285 284 284 283 282 281 280 279 278 277
248 254 261 265 269 272 274 275 278 279 282 284 286 287 288 290 291 293 294 295 295 295 295 295 295 294 293 291 290 289 288 287 286 285 284 282 282 281 280 280 279 278 277
253 259 265 269 273 276 279 281 282 284 285 287 288 289 291 293 293 294 294 294 294 294 293 293 292 292 291 291 290 289 288 288 286 285 284 283 282 281 280 279 278 278 277
259 265 270 273 277 281 283 284 286 288 289 290 290 290 291 293 294 295 295 295 294 293 292 291 291 291 290 290 289 289 288 288 287 286 284 283 282 281 280 279 278 278 277
265 270 274 278 283 286 288 289 290 291 293 293 293 294 294 294 295 295 295 295 295 294 292 291 290 290 289 289 289 288 288 287 287 286 285 283 283 281 280 279 278 278 277
266 270 274 279 285 289 291 292 292 293 294 293 293 294 294 295 295 294 294 294 294 293 292 292 291 290 289 288 288 288 288 287 286 285 284 283 283 282 281 279 278 277 277
271 271 273 278 283 287 289 291 292 292 292 291 291 292 292 293 293 293 294 294 293 293 292 291 290 289 289 288 288 288 288 287 286 285 284 283 282 281 281 280 278 277 276
274 277 279 281 284 287 289 291 292 292 292 290 290 290 291 291 291 291 292 292 292 291 291 290 289 289 289 288 288 288 288 287 286 286 285 284 283 282 281 280 279 278 276
277 280 282 284 286 288 289 289 291 292 292 292 291 291 291 290 290 290 289 289 289 290 289 289 289 288 288 288 288 288 287 287 286 286 285 284 284 283 283 282 281 279 278
280 282 284 285 287 288 289 289 290 291 292 292 292 291 291 290 290 290 289 289 289 289 289 288 289 289 289 288 288 287 287 287 286 285 285 284 284 283 283 282 281 280 279
283 284 285 286 287 288 288 289 290 290 291 292 292 292 291 291 290 290 290 289 289 289 289 289 289 289 289 289 288 288 288 287 286 286 285 285 285 284 284 283 282 281 280
284 286 287 288 288 288 288 289 289 289 290 291 292 291 291 290 290 289 289 289 289 290 290 289 289 289 289 289 289 289 289 288 287 286 285 285 284 284 284 284 283 282 281
284 285 287 289 289 289 289 289 289 289 289 290 291 292 291 291 290 289 289 289 289 290 290 289 289 289 290 290 290 289 289 289 288 286 285 285 285 284 284 284 283 283 282
283 284 287 289 289 289 289 288 288 288 288 290 290 290 290 290 290 289 289 289 289 289 289 289 289 289 290 290 290 290 290 289 288 287 286 286 286 285 285 284 283 282 282
283 285 287 288 288 289 288 287 287 287 287 288 289 290 289 289 289 289 289 289 289 289 290 290 290 290 290 291 291 291 290 290 289 288 287 287 286 286 285 285 284 283 282
283 285 286 287 288 289 288 287 287 287 287 287 288 289 289 289 289 289 289 289 290 291 291 291 290 290 290 291 292 291 290 290 289 288 288 288 288 287 286 285 284 284 283
282 284 285 286 287 287 287 287 287 287 287 287 287 288 288 288 288 288 289 290 290 291 290 290 291 291 291 292 292 291 290 290 289 289 289 289 288 287 287 286 285 284 284
281 282 284 285 286 286 286 286 286 286 286 286 287 287 286 286 287 287 288 289 290 290 290 290 291 292 292 292 292 292 291 291 290 290 290 289 288 287 287 286 286 285 284
280 282 283 284 284 284 284 285 285 285 285 285 285 285 286 286 286 287 287 288 289 289 289 290 291 293 293 293 293 293 293 292 292 292 291 290 290 289 288 287 286 286 285
279 280 282 282 283 283 283 284 284 284 284 284 284 285 285 285 285 286 287 288 289 289 289 290 292 294 294 294 294 294 294 294 294 293 292 292 291 290 289 288 287 287 286
279 280 280 281 282 282 283 283 283 284 284 284 284 284 284 284 285 285 286 288 289 289 290 292 293 294 295 295 294 294 294 295 295 294 293 293 292 291 290 290 289 288 288
279 279 280 280 280 281 281 282 283 284 284 283 282 283 283 283 285 285 286 288 289 290 291 293 294 294 295 295 295 294 295 296 296 295 295 294 294 293 292 291 291 290 289
278 279 279 280 280 281 281 281 282 282 282 282 282 282 283 284 284 285 286 287 288 289 291 293 294 295 296 296 296 295 295 295 295 295 296 295 295 294 294 293 292 291 291
277 278 278 279 279 280 280 281 281 281 281 281 282 283 282 283 284 284 286 287 288 289 291 293 294 295 296 297 297 297 297 296 295 295 295 295 295 294 294 294 293 293 292
277 277 277 278 278 279 280 280 280 280 280 281 282 282 282 283 284 285 286 287 289 290 291 293 295 296 297 297 298 297 297 297 297 297 296 295 295 295 294 294 294 294 294
276 276 277 278 278 278 279 279 280 279 280 280 281 281 282 283 285 285 286 288 290 291 293 294 295 296 297 298 298 297 298 298 298 297 297 296 296 295 295 295 295 294 294
Height
5874 5875 5875 5876 5877 5877 5878 5878 5879 5879 5879 5879 5880 5880 5880 5879 5879 5879 5879 5879 5879 5878 5878 5877 5877 5876 5876 5875 5875 5874 5874 5873 5873 5872 5872 5871 5871 5870 5870 5869 5869 5868 5868
5873 5873 5874 5875 5875 5876 5876 5877 5877 5877 5877 5877 5877 5877 5877 5877 5877 5877 5877 5876 5876 5876 5875 5875 5874 5874 5873 5873 5872 5871 5871 5870 5870 5869 5869 5868 5867 5867 5866 5866 5865 5865 5864
5872 5872 5873 5873 5874 5874 5874 5875 5875 5875 5875 5876 5875 5875 5875 5875 5875 5874 5874 5874 5874 5873 5873 5872 5872 5871 5870 5870 5869 5868 5868 5867 5866 5866 5865 5864 5864 5863 5863 5862 5861 5861 5860
5870 5871 5871 5872 5872 5873 5873 5873 5873 5873 5873 5873 5873 5873 5873 5873 5873 5872 5872 5871 5871 5870 5870 5869 5869 5868 5867 5866 5866 5865 5864 5864 5863 5862 5862 5861 5860 5859 5859 5858 5857 5857 5856
5870 5870 5870 5871 5871 5871 5871 5871 5871 5871 5871 5871 5871 5871 5871 5870 5870 5870 5869 5869 5868 5867 5867 5866 5866 5865 5864 5863 5862 5861 5861 5860 5859 5859 5858 5857 5856 5855 5854 5854 5853 5852 5852
5868 5869 5869 5869 5869 5869 5869 5869 5869 5869 5869 5869 5869 5869 5868 5868 5867 5867 5866 5866 5865 5864 5864 5863 5862 5861 5861 5860 5859 5858 5857 5856 5855 5854 5854 5853 5852 5851 5850 5849 5848 5848 5847
5867 5867 5867 5867 5868 5868 5868 5867 5867 5867 5867 5867 5866 5866 5866 5865 5865 5864 5863 5863 5862 5861 5860 5860 5859 5858 5857 5856 5855 5854 5853 5852 5851 5850 5849 5848 5847 5846 5845 5844 5844 5843 5842
5865 5865 5865 5865 5866 5866 5865 5865 5865 5865 5864 5864 5864 5863 5863 5862 5862 5861 5860 5859 5858 5858 5857 5856 5855 5854 5853 5852 5850 5849 5848 5847 5846 5845 5844 5843 5842 5841 5840 5839 5838 5837 5836
5863 5863 5863 5863 5863 5863 5863 5862 5862 5862 5861 5861 5861 5860 5859 5859 5858 5857 5856 5855 5854 5854 5853 5852 5851 5850 5848 5847 5846 5845 5843 5842 5841 5840 5839 5838 5836 5835 5834 5833 5832 5831 5831
5861 5861 5861 5861 5861 5860 5860 5860 5859 5859 5858 5858 5857 5856 5856 5855 5854 5853 5852 5851 5850 5849 5848 5847 5846 5845 5844 5842 5841 5840 5838 5837 5836 5835 5833 5832 5831 5830 5828 5827 5826 5825 5824
5858 5859 5858 5858 5858 5857 5857 5856 5856 5855 5855 5854 5853 5853 5852 5851 5850 5849 5848 5847 5846 5845 5844 5842 5841 5840 5839 5837 5836 5834 5833 5832 5831 5829 5828 5826 5825 5823 5822 5821 5820 5819 5817
5856 5856 5855 5855 5855 5854 5854 5853 5852 5852 5851 5850 5849 5849 5848 5847 5846 5845 5844 5842 5841 5840 5839 5837 5836 5835 5833 5832 5830 5829 5827 5826 5825 5823 5822 5820 5818 5817 5816 5814 5813 5812 5811
5852 5852 5852 5852 5851 5851 5850 5849 5849 5848 5847 5846 5845 5844 5843 5842 5841 5840 5839 5837 5836 5835 5833 5832 5831 5829 5828 5826 5825 5823 5822 5820 5819 5817 5815 5813 5812 5810 5809 5807 5806 5805 5803
5849 5848 5848 5848 5847 5847 5846 5845 5844 5844 5843 5842 5841 5840 5839 5837 5836 5835 5834 5832 5831 5829 5828 5826 5825 5824 5822 5821 5819 5817 5816 5814 5812 5810 5809 5807 5805 5803 5802 5800 5798 5797 5796
5845 5845 5844 5844 5843 5842 5842 5841 5840 5839 5838 5837 5836 5835 5834 5832 5831 5830 5828 5827 5825 5824 5822 5821 5819 5817 5816 5814 5812 5811 5809 5807 5805 5804 5802 5800 5798 5796 5794 5793 5791 5789 5788
5840 5840 5839 5839 5838 5837 5836 5836 5835 5834 5833 5831 5830 5829 5828 5826 5825 5824 5822 5821 5819 5818 5816 5814 5813 5811 5809 5807 5806 5804 5802 5800 5798 5796 5795 5793 5791 5789 5787 5785 5783 5781 5780
5835 5834 5834 5833 5832 5832 5831 5830 5829 5828 5827 5826 5824 5823 5822 5820 5819 5817 5816 5814 5813 5811 5810 5808 5806 5804 5803 5801 5799 5797 5795 5793 5791 5789 5787 5785 5783 5781 5779 5777 5775 5773 5771
5829 5829 5828 5827 5826 5826 5824 5823 5823 5822 5820 5819 5818 5816 5815 5814 5812 5811 5809 5808 5806 5805 5803 5801 5799 5798 5796 5794 5791 5789 5787 5785 5783 5781 5779 5777 5775 5773 5771 5769 5767 5765 5763
5823 5822 5822 5821 5820 5819 5818 5817 5816 5815 5814 5812 5811 5810 5808 5807 5805 5804 5803 5801 5799 5798 5796 5794 5792 5791 5789 5786 5784 5782 5780 5778 5776 5773 5771 5769 5767 5765 5763 5761 5758 5756 5754
5816 5815 5815 5814 5813 5812 5811 5810 5809 5808 5807 5805 5804 5803 5801 5800 5799 5797 5796 5794 5792 5791 5789 5787 5785 5783 5781 5779 5777 5775 5772 5770 5767 5765 5763 5760 5758 5756 5754 5752 5749 5747 5744
5808 5808 5807 5807 5806 5805 5804 5803 5802 5801 5800 5798 5797 5796 5794 5793 5791 5790 5788 5787 5785 5783 5782 5780 5778 5776 5774 5771 5770 5767 5764 5762 5759 5756 5754 5751 5749 5747 5744 5742 5739 5737 5734
5800 5800 5800 5799 5798 5797 5797 5795 5794 5793 5792 5791 5789 5788 5787 5785 5784 5782 5781 5779 5778 5776 5774 5772 5770 5768 5766 5763 5761 5759 5757 5755 5751 5748 5745 5742 5739 5737 5734 5731 5729 5726 5724
5793 5792 5792 5791 5790 5789 5789 5788 5786 5785 5784 5783 5782 5780 5779 5778 5776 5775 5773 5772 5770 5768 5767 5764 5762 5760 5758 5755 5752 5750 5748 5746 5744 5740 5736 5733 5730 5727 5724 5721 5718 5715 5713
5785 5784 5784 5783 5782 5781 5781 5780 5779 5778 5777 5776 5774 5773 5771 5770 5769 5767 5766 5764 5762 5761 5758 5756 5754 5752 5749 5747 5744 5741 5739 5736 5734 5732 5728 5724 5720 5717 5714 5710 5707 5704 5701
5777 5776 5775 5775 5774 5773 5773 5772 5771 5770 5769 5768 5767 5765 5764 5762 5761 5760 5758 5756 5754 5752 5750 5748 5745 5743 5740 5738 5735 5732 5729 5726 5723 5721 5719 5715 5711 5707 5704 5700 5696 5693 5690
5768 5768 5767 5767 5766 5765 5764 5764 5763 5762 5761 5760 5759 5758 5756 5755 5754 5752 5750 5748 5746 5744 5742 5739 5737 5734 5732 5729 5726 5723 5720 5717 5713 5710 5708 5705 5702 5698 5694 5690 5686 5682 5678